owner,sensor,date,latitude,longitude,vertical_datum,direction_of_sea_water_velocity,sea_water_speed,upward_sea_water_velocity,qcFlag 
ADCP,ioos:station:wmo:42372:1,2014-11-01T00:26:00Z,27.7800,-90.5180,32.8,117.0,47.5,-16.6,'1111122,1111122,1111122' 
ADCP,ioos:station:wmo:42372:1,2014-11-01T01:06:00Z,27.7800,-90.5180,32.8,126.0,46.4,-19.0,'1111122,1111122,1111122' 
ADCP,ioos:station:wmo:42372:1,2014-11-01T02:26:00Z,27.7800,-90.5180,32.7,126.0,52.5,-18.1,'1111122,1111122,1111122' 
ADCP,ioos:station:wmo:42372:1,2014-11-01T03:26:00Z,27.7800,-90.5180,32.8,126.0,42.2,-20.2,'1111122,1111122,1111122' 
ADCP,ioos:station:wmo:42372:1,2014-11-01T05:26:00Z,27.7800,-90.5180,32.7,121.0,48.1,-21.0,'1111122,1111122,1111122' 
ADCP,ioos:station:wmo:42372:1,2014-11-01T06:26:00Z,27.7800,-90.5180,32.7,117.0,45.0,-20.9,'1111122,1111122,1111122' 
ADCP,ioos:station:wmo:42372:1,2014-11-01T07:26:00Z,27.7800,-90.5180,32.8,122.0,50.4,-18.8,'1111122,1111122,1111122' 
ADCP,ioos:station:wmo:42372:1,2014-11-01T08:26:00Z,27.7800,-90.5180,32.7,113.0,65.0,-14.7,'1111122,1111122,1111122' 
ADCP,ioos:station:wmo:42372:1,2014-11-01T09:26:00Z,27.7800,-90.5180,32.6,114.0,75.3,-8.2,'1111122,1111122,1111122' 
ADCP,ioos:station:wmo:42372:1,2014-11-01T10:27:00Z,27.7800,-90.5180,32.7,110.0,84.2,-3.0,'1111122,1111122,1111122' 
ADCP,ioos:station:wmo:42372:1,2014-11-01T12:27:00Z,27.7800,-90.5180,32.6,102.0,86.9,-5.9,'1111122,1111122,1111122' 
ADCP,ioos:station:wmo:42372:1,2014-11-01T13:27:00Z,27.7800,-90.5180,32.7,103.0,95.3,5.2,'1111122,1111122,1111122' 
ADCP,ioos:station:wmo:42372:1,2014-11-01T14:27:00Z,27.7800,-90.5180,32.5,103.0,94.2,5.1,'1111122,1111122,1111122' 
ADCP,ioos:station:wmo:42372:1,2014-11-01T15:27:00Z,27.7800,-90.5180,32.4,105.0,92.2,1.0,'1111122,1111122,1111122' 
ADCP,ioos:station:wmo:42372:1,2014-11-01T16:27:00Z,27.7800,-90.5180,32.4,110.0,95.4,4.0,'1111122,1111122,1111122' 
ADCP,ioos:station:wmo:42372:1,2014-11-01T17:27:00Z,27.7800,-90.5180,32.4,111.0,93.7,-2.8,'1111122,1111122,1111122' 
ADCP,ioos:station:wmo:42372:1,2014-11-01T18:27:00Z,27.7800,-90.5180,32.4,112.0,95.9,3.0,'1111122,1111122,1111122' 
ADCP,ioos:station:wmo:42372:1,2014-11-01T20:27:00Z,27.7800,-90.5180,32.5,117.0,93.1,16.4,'1111122,1111122,1111122' 
ADCP,ioos:station:wmo:42372:1,2014-11-01T21:27:00Z,27.7800,-90.5180,32.3,107.0,86.9,4.0,'1111122,1111122,1111122' 
ADCP,ioos:station:wmo:42372:1,2014-11-01T23:27:00Z,27.7800,-90.5180,32.6,106.0,91.0,-10.0,'1111122,1111122,1111122' 
ADCP,ioos:station:wmo:42372:1,2014-11-02T00:27:00Z,27.7800,-90.5180,32.6,111.0,87.8,-11.2,'1111122,1111122,1111122' 
ADCP,ioos:station:wmo:42372:1,2014-11-02T01:27:00Z,27.7800,-90.5180,32.6,121.0,86.8,-11.4,'1111122,1111122,1111122' 
ADCP,ioos:station:wmo:42372:1,2014-11-02T02:27:00Z,27.7800,-90.5180,32.6,121.0,91.8,-2.6,'1111122,1111122,1111122' 
ADCP,ioos:station:wmo:42372:1,2014-11-02T03:27:00Z,27.7800,-90.5180,32.7,127.0,76.5,-14.9,'1111122,1111122,1111122' 
ADCP,ioos:station:wmo:42372:1,2014-11-02T04:28:00Z,27.7800,-90.5180,32.6,130.0,82.3,-8.3,'1111122,1111122,1111122' 
ADCP,ioos:station:wmo:42372:1,2014-11-02T05:28:00Z,27.7800,-90.5180,32.7,133.0,71.8,-15.7,'1111122,1111122,1111122' 
ADCP,ioos:station:wmo:42372:1,2014-11-02T06:08:00Z,27.7800,-90.5180,32.7,130.0,80.5,-5.8,'1111122,1111122,1111122' 
ADCP,ioos:station:wmo:42372:1,2014-11-02T06:48:00Z,27.7800,-90.5180,32.7,132.0,71.2,-15.0,'1111122,1111122,1111122' 
ADCP,ioos:station:wmo:42372:1,2014-11-02T08:28:00Z,27.7800,-90.5180,32.8,131.0,63.7,-14.5,'1111122,1111122,1111122' 
ADCP,ioos:station:wmo:42372:1,2014-11-02T09:28:00Z,27.7800,-90.5180,32.6,132.0,66.5,-11.7,'1111122,1111122,1111122' 
ADCP,ioos:station:wmo:42372:1,2014-11-02T10:28:00Z,27.7800,-90.5180,32.7,129.0,73.2,-8.7,'1111122,1111122,1111122' 
ADCP,ioos:station:wmo:42372:1,2014-11-02T11:28:00Z,27.7800,-90.5180,32.6,131.0,72.9,-6.1,'1111122,1111122,1111122' 
ADCP,ioos:station:wmo:42372:1,2014-11-02T12:28:00Z,27.7800,-90.5180,32.8,133.0,74.5,-10.2,'1111122,1111122,1111122' 
ADCP,ioos:station:wmo:42372:1,2014-11-02T13:28:00Z,27.7800,-90.5180,32.6,127.0,93.0,8.3,'1111122,1111122,1111122' 
ADCP,ioos:station:wmo:42372:1,2014-11-02T14:28:00Z,27.7800,-90.5180,32.7,127.0,80.0,-0.4,'1111122,1111122,1111122' 
ADCP,ioos:station:wmo:42372:1,2014-11-02T15:28:00Z,27.7800,-90.5180,32.5,132.0,77.3,3.0,'1111122,1111122,1111122' 
ADCP,ioos:station:wmo:42372:1,2014-11-02T16:28:00Z,27.7800,-90.5180,32.6,130.0,91.9,20.0,'1111122,1111122,1111122' 
ADCP,ioos:station:wmo:42372:1,2014-11-02T18:28:00Z,27.7800,-90.5180,32.4,110.0,91.1,4.7,'1111122,1111122,1111122' 
ADCP,ioos:station:wmo:42372:1,2014-11-02T19:28:00Z,27.7800,-90.5180,32.5,107.0,91.7,4.3,'1111122,1111122,1111122' 
ADCP,ioos:station:wmo:42372:1,2014-11-02T20:28:00Z,27.7800,-90.5180,32.4,101.0,89.4,-9.2,'1111122,1111122,1111122' 
ADCP,ioos:station:wmo:42372:1,2014-11-02T21:28:00Z,27.7800,-90.5180,32.4,100.0,89.2,-2.5,'1111122,1111122,1111122' 
ADCP,ioos:station:wmo:42372:1,2014-11-02T22:29:00Z,27.7800,-90.5180,32.4,102.0,90.4,3.6,'1111122,1111122,1111122' 
ADCP,ioos:station:wmo:42372:1,2014-11-03T00:29:00Z,27.7800,-90.5180,32.7,103.0,87.7,1.9,'1111122,1111122,1111122' 
ADCP,ioos:station:wmo:42372:1,2014-11-03T01:29:00Z,27.7800,-90.5180,32.6,101.0,87.6,-4.3,'1111122,1111122,1111122' 
ADCP,ioos:station:wmo:42372:1,2014-11-03T02:29:00Z,27.7800,-90.5180,32.6,101.0,90.3,-2.4,'1111122,1111122,1111122' 
ADCP,ioos:station:wmo:42372:1,2014-11-03T03:29:00Z,27.7800,-90.5180,32.6,104.0,88.5,-2.5,'1111122,1111122,1111122' 
ADCP,ioos:station:wmo:42372:1,2014-11-03T04:29:00Z,27.7800,-90.5180,32.5,108.0,91.6,3.1,'1111122,1111122,1111122' 
ADCP,ioos:station:wmo:42372:1,2014-11-03T05:29:00Z,27.7800,-90.5180,32.6,105.0,88.3,-5.5,'1111122,1111122,1111122' 
ADCP,ioos:station:wmo:42372:1,2014-11-03T06:29:00Z,27.7800,-90.5180,32.5,106.0,88.2,-10.8,'1111122,1111122,1111122' 
ADCP,ioos:station:wmo:42372:1,2014-11-03T07:29:00Z,27.7800,-90.5180,32.4,113.0,82.8,-11.5,'1111122,1111122,1111122' 
ADCP,ioos:station:wmo:42372:1,2014-11-03T08:29:00Z,27.7800,-90.5180,32.5,116.0,73.2,-15.6,'1111122,1111122,1111122' 
ADCP,ioos:station:wmo:42372:1,2014-11-03T09:29:00Z,27.7800,-90.5180,32.4,111.0,92.8,6.1,'1111122,1111122,1111122' 
ADCP,ioos:station:wmo:42372:1,2014-11-03T10:29:00Z,27.7800,-90.5180,32.5,119.0,74.0,-7.6,'1111122,1111122,1111122' 
ADCP,ioos:station:wmo:42372:1,2014-11-03T11:29:00Z,27.7800,-90.5180,32.5,121.0,80.6,-1.8,'1111122,1111122,1111122' 
ADCP,ioos:station:wmo:42372:1,2014-11-03T12:09:00Z,27.7800,-90.5180,32.6,121.0,83.8,3.8,'1111122,1111122,1111122' 
ADCP,ioos:station:wmo:42372:1,2014-11-03T13:29:00Z,27.7800,-90.5180,32.6,126.0,79.5,-0.7,'1111122,1111122,1111122' 
ADCP,ioos:station:wmo:42372:1,2014-11-03T14:29:00Z,27.7800,-90.5180,32.6,137.0,63.7,-13.0,'1111122,1111122,1111122' 
ADCP,ioos:station:wmo:42372:1,2014-11-03T15:29:00Z,27.7800,-90.5180,32.6,127.0,73.3,-4.6,'1111122,1111122,1111122' 
ADCP,ioos:station:wmo:42372:1,2014-11-03T16:30:00Z,27.7800,-90.5180,32.6,120.0,84.4,4.6,'1111122,1111122,1111122' 
ADCP,ioos:station:wmo:42372:1,2014-11-03T17:30:00Z,27.7800,-90.5180,32.5,118.0,80.8,-3.9,'1111122,1111122,1111122' 
ADCP,ioos:station:wmo:42372:1,2014-11-03T18:30:00Z,27.7800,-90.5180,32.5,107.0,87.4,1.8,'1111122,1111122,1111122' 
ADCP,ioos:station:wmo:42372:1,2014-11-03T20:30:00Z,27.7800,-90.5180,32.5,108.0,90.4,9.8,'1111122,1111122,1111122' 
ADCP,ioos:station:wmo:42372:1,2014-11-03T21:40:00Z,27.7800,-90.5180,32.7,121.0,76.0,-4.0,'1111122,1111122,1111122' 
ADCP,ioos:station:wmo:42372:1,2014-11-03T22:30:00Z,27.7800,-90.5180,32.4,119.0,88.2,3.3,'1111122,1111122,1111122' 
ADCP,ioos:station:wmo:42372:1,2014-11-03T23:30:00Z,27.7800,-90.5180,32.5,112.0,88.5,10.9,'1111122,1111122,1111122' 
ADCP,ioos:station:wmo:42372:1,2014-11-04T00:30:00Z,27.7800,-90.5180,32.4,109.0,87.4,10.8,'1111122,1111122,1111122' 
ADCP,ioos:station:wmo:42372:1,2014-11-04T01:30:00Z,27.7800,-90.5180,32.5,106.0,82.7,6.3,'1111122,1111122,1111122' 
ADCP,ioos:station:wmo:42372:1,2014-11-04T02:30:00Z,27.7800,-90.5180,32.7,108.0,86.7,12.9,'1111122,1111122,1111122' 
ADCP,ioos:station:wmo:42372:1,2014-11-04T03:30:00Z,27.7800,-90.5180,32.4,107.0,87.9,10.2,'1111122,1111122,1111122' 
ADCP,ioos:station:wmo:42372:1,2014-11-04T04:30:00Z,27.7800,-90.5180,32.5,110.0,89.7,14.1,'1111122,1111122,1111122' 
ADCP,ioos:station:wmo:42372:1,2014-11-04T05:30:00Z,27.7800,-90.5180,32.5,107.0,86.0,8.8,'1111122,1111122,1111122' 
ADCP,ioos:station:wmo:42372:1,2014-11-04T06:20:00Z,27.7800,-90.5180,32.5,103.0,84.5,5.5,'1111122,1111122,1111122' 
ADCP,ioos:station:wmo:42372:1,2014-11-04T07:20:00Z,27.7800,-90.5180,32.4,101.0,87.3,5.3,'1111122,1111122,1111122' 
ADCP,ioos:station:wmo:42372:1,2014-11-04T08:30:00Z,27.7800,-90.5180,32.5,100.0,86.8,4.9,'1111122,1111122,1111122' 
ADCP,ioos:station:wmo:42372:1,2014-11-04T09:20:00Z,27.7800,-90.5180,32.3,103.0,86.2,-5.9,'1111122,1111122,1111122' 
ADCP,ioos:station:wmo:42372:1,2014-11-04T10:21:00Z,27.7800,-90.5180,32.4,118.0,93.4,7.9,'1111122,1111122,1111122' 
ADCP,ioos:station:wmo:42372:1,2014-11-04T11:21:00Z,27.7800,-90.5180,32.5,101.0,81.9,0.7,'1111122,1111122,1111122' 
ADCP,ioos:station:wmo:42372:1,2014-11-04T12:21:00Z,27.7800,-90.5180,32.6,101.0,79.8,2.0,'1111122,1111122,1111122' 
ADCP,ioos:station:wmo:42372:1,2014-11-04T13:21:00Z,27.7800,-90.5180,32.5,105.0,78.1,4.1,'1111122,1111122,1111122' 
ADCP,ioos:station:wmo:42372:1,2014-11-04T14:21:00Z,27.7800,-90.5180,32.5,125.0,71.3,0.6,'1111122,1111122,1111122' 
ADCP,ioos:station:wmo:42372:1,2014-11-04T15:21:00Z,27.7800,-90.5180,32.6,116.0,62.8,-12.7,'1111122,1111122,1111122' 
ADCP,ioos:station:wmo:42372:1,2014-11-04T16:31:00Z,27.7800,-90.5180,32.6,118.0,67.0,-10.7,'1111122,1111122,1111122' 
ADCP,ioos:station:wmo:42372:1,2014-11-04T17:21:00Z,27.7800,-90.5180,32.6,120.0,68.7,-4.9,'1111122,1111122,1111122' 
ADCP,ioos:station:wmo:42372:1,2014-11-04T19:21:00Z,27.7800,-90.5180,32.6,126.0,73.0,-2.5,'1111122,1111122,1111122' 
ADCP,ioos:station:wmo:42372:1,2014-11-04T20:21:00Z,27.7800,-90.5180,32.8,125.0,69.2,-5.6,'1111122,1111122,1111122' 
ADCP,ioos:station:wmo:42372:1,2014-11-04T21:21:00Z,27.7800,-90.5180,32.7,122.0,81.6,10.9,'1111122,1111122,1111122' 
ADCP,ioos:station:wmo:42372:1,2014-11-04T22:21:00Z,27.7800,-90.5180,32.7,129.0,75.7,1.7,'1111122,1111122,1111122' 
ADCP,ioos:station:wmo:42372:1,2014-11-05T00:21:00Z,27.7800,-90.5180,32.6,126.0,95.0,31.6,'1111122,1111122,1111122' 
ADCP,ioos:station:wmo:42372:1,2014-11-05T01:21:00Z,27.7800,-90.5180,32.6,112.0,80.6,11.8,'1111122,1111122,1111122' 
ADCP,ioos:station:wmo:42372:1,2014-11-05T02:21:00Z,27.7800,-90.5180,32.5,109.0,79.4,8.0,'1111122,1111122,1111122' 
ADCP,ioos:station:wmo:42372:1,2014-11-05T03:21:00Z,27.7800,-90.5180,32.5,107.0,80.3,6.6,'1111122,1111122,1111122' 
ADCP,ioos:station:wmo:42372:1,2014-11-05T04:22:00Z,27.7800,-90.5180,32.5,106.0,73.1,9.0,'1111122,1111122,1111122' 
ADCP,ioos:station:wmo:42372:1,2014-11-05T05:22:00Z,27.7800,-90.5180,32.5,110.0,76.8,10.7,'1111122,1111122,1111122' 
ADCP,ioos:station:wmo:42372:1,2014-11-05T06:22:00Z,27.7800,-90.5180,32.4,103.0,75.7,7.6,'1111122,1111122,1111122' 
ADCP,ioos:station:wmo:42372:1,2014-11-05T07:22:00Z,27.7800,-90.5180,32.3,91.0,75.1,-1.1,'1111122,1111122,1111122' 
ADCP,ioos:station:wmo:42372:1,2014-11-05T09:22:00Z,27.7800,-90.5180,32.4,104.0,70.4,9.7,'1111122,1111122,1111122' 
ADCP,ioos:station:wmo:42372:1,2014-11-05T10:22:00Z,27.7800,-90.5180,32.3,105.0,81.2,13.9,'1111122,1111122,1111122' 
ADCP,ioos:station:wmo:42372:1,2014-11-05T11:22:00Z,27.7800,-90.5180,32.3,98.0,78.6,9.1,'1111122,1111122,1111122' 
ADCP,ioos:station:wmo:42372:1,2014-11-05T12:22:00Z,27.7800,-90.5180,32.3,100.0,80.3,8.3,'1111122,1111122,1111122' 
ADCP,ioos:station:wmo:42372:1,2014-11-05T13:22:00Z,27.7800,-90.5180,32.3,103.0,80.4,9.7,'1111122,1111122,1111122' 
ADCP,ioos:station:wmo:42372:1,2014-11-05T14:22:00Z,27.7800,-90.5180,32.4,96.0,82.8,5.3,'1111122,1111122,1111122' 
ADCP,ioos:station:wmo:42372:1,2014-11-05T16:12:00Z,27.7800,-90.5180,32.4,94.0,82.1,4.5,'1111122,1111122,1111122' 
ADCP,ioos:station:wmo:42372:1,2014-11-05T18:12:00Z,27.7800,-90.5180,32.4,92.0,92.0,1.2,'1111122,1111122,1111122' 
ADCP,ioos:station:wmo:42372:1,2014-11-05T19:22:00Z,27.7800,-90.5180,32.4,92.0,90.5,-0.4,'1111122,1111122,1111122' 
ADCP,ioos:station:wmo:42372:1,2014-11-05T20:02:00Z,27.7800,-90.5180,32.4,92.0,92.4,-0.4,'1111122,1111122,1111122' 
ADCP,ioos:station:wmo:42372:1,2014-11-05T23:23:00Z,27.7800,-90.5180,32.5,94.0,97.3,-1.8,'1111122,1111122,1111122' 
ADCP,ioos:station:wmo:42372:1,2014-11-06T00:23:00Z,27.7800,-90.5180,32.6,92.0,97.8,-5.7,'1111122,1111122,1111122' 
ADCP,ioos:station:wmo:42372:1,2014-11-06T01:23:00Z,27.7800,-90.5180,32.4,97.0,95.8,-2.0,'1111122,1111122,1111122' 
ADCP,ioos:station:wmo:42372:1,2014-11-06T02:23:00Z,27.7800,-90.5180,32.4,99.0,96.4,2.7,'1111122,1111122,1111122' 
ADCP,ioos:station:wmo:42372:1,2014-11-06T03:23:00Z,27.7800,-90.5180,32.4,103.0,96.2,3.8,'1111122,1111122,1111122' 
ADCP,ioos:station:wmo:42372:1,2014-11-06T05:23:00Z,27.7800,-90.5180,32.6,118.0,99.0,22.1,'1111122,1111122,1111122' 
ADCP,ioos:station:wmo:42372:1,2014-11-06T06:23:00Z,27.7800,-90.5180,32.4,124.0,99.5,29.1,'1111122,1111122,1111122' 
ADCP,ioos:station:wmo:42372:1,2014-11-06T07:23:00Z,27.7800,-90.5180,32.5,124.0,96.2,25.7,'1111122,1111122,1111122' 
ADCP,ioos:station:wmo:42372:1,2014-11-06T08:23:00Z,27.7800,-90.5180,32.4,123.0,82.2,9.2,'1111122,1111122,1111122' 
ADCP,ioos:station:wmo:42372:1,2014-11-06T09:23:00Z,27.7800,-90.5180,32.2,123.0,88.1,25.6,'1111122,1111122,1111122' 
ADCP,ioos:station:wmo:42372:1,2014-11-06T10:23:00Z,27.7800,-90.5180,32.4,131.0,85.6,30.7,'1111122,1111122,1111122' 
ADCP,ioos:station:wmo:42372:1,2014-11-06T11:23:00Z,27.7800,-90.5180,32.3,130.0,88.7,39.2,'1111122,1111122,1111122' 
ADCP,ioos:station:wmo:42372:1,2014-11-06T12:23:00Z,27.7800,-90.5180,32.3,131.0,89.2,41.0,'1111122,1111122,1111122' 
ADCP,ioos:station:wmo:42372:1,2014-11-06T13:23:00Z,27.7800,-90.5180,32.4,120.0,85.5,33.7,'1111122,1111122,1111122' 
ADCP,ioos:station:wmo:42372:1,2014-11-06T14:23:00Z,27.7800,-90.5180,32.5,122.0,86.1,34.1,'1111122,1111122,1111122' 
ADCP,ioos:station:wmo:42372:1,2014-11-06T15:23:00Z,27.7800,-90.5180,32.6,120.0,86.7,33.7,'1111122,1111122,1111122' 
ADCP,ioos:station:wmo:42372:1,2014-11-06T16:24:00Z,27.7800,-90.5180,32.6,120.0,84.7,31.3,'1111122,1111122,1111122' 
ADCP,ioos:station:wmo:42372:1,2014-11-06T17:24:00Z,27.7800,-90.5180,32.6,118.0,81.1,26.1,'1111122,1111122,1111122' 
ADCP,ioos:station:wmo:42372:1,2014-11-06T18:24:00Z,27.7800,-90.5180,32.5,118.0,82.1,25.1,'1111122,1111122,1111122' 
ADCP,ioos:station:wmo:42372:1,2014-11-06T19:24:00Z,27.7800,-90.5180,32.5,118.0,83.2,26.9,'1111122,1111122,1111122' 
ADCP,ioos:station:wmo:42372:1,2014-11-06T20:24:00Z,27.7800,-90.5180,32.7,113.0,80.4,23.4,'1111122,1111122,1111122' 
ADCP,ioos:station:wmo:42372:1,2014-11-06T21:24:00Z,27.7800,-90.5180,32.6,110.0,76.1,18.9,'1111122,1111122,1111122' 
ADCP,ioos:station:wmo:42372:1,2014-11-06T22:24:00Z,27.7800,-90.5180,32.5,109.0,72.2,16.4,'1111122,1111122,1111122' 
ADCP,ioos:station:wmo:42372:1,2014-11-06T23:24:00Z,27.7800,-90.5180,32.6,108.0,76.4,17.2,'1111122,1111122,1111122' 
ADCP,ioos:station:wmo:42372:1,2014-11-07T01:24:00Z,27.7800,-90.5180,32.6,112.0,77.4,19.2,'1111122,1111122,1111122' 
ADCP,ioos:station:wmo:42372:1,2014-11-07T02:24:00Z,27.7800,-90.5180,32.7,102.0,76.4,10.5,'1111122,1111122,1111122' 
ADCP,ioos:station:wmo:42372:1,2014-11-07T03:24:00Z,27.7800,-90.5180,32.7,99.0,76.7,9.0,'1111122,1111122,1111122' 
ADCP,ioos:station:wmo:42372:1,2014-11-07T05:24:00Z,27.7800,-90.5180,32.5,99.0,76.0,6.2,'1111122,1111122,1111122' 
ADCP,ioos:station:wmo:42372:1,2014-11-07T06:24:00Z,27.7800,-90.5180,32.4,105.0,82.8,10.9,'1111122,1111122,1111122' 
ADCP,ioos:station:wmo:42372:1,2014-11-07T07:24:00Z,27.7800,-90.5180,32.4,108.0,81.5,13.3,'1111122,1111122,1111122' 
ADCP,ioos:station:wmo:42372:1,2014-11-07T08:24:00Z,27.7800,-90.5180,32.3,116.0,81.7,19.0,'1111122,1111122,1111122' 
ADCP,ioos:station:wmo:42372:1,2014-11-07T09:24:00Z,27.7800,-90.5180,32.3,119.0,87.1,23.5,'1111122,1111122,1111122' 
ADCP,ioos:station:wmo:42372:1,2014-11-07T10:25:00Z,27.7800,-90.5180,32.3,116.0,87.4,21.0,'1111122,1111122,1111122' 
ADCP,ioos:station:wmo:42372:1,2014-11-07T11:25:00Z,27.7800,-90.5180,32.3,114.0,86.5,19.6,'1111122,1111122,1111122' 
ADCP,ioos:station:wmo:42372:1,2014-11-07T12:25:00Z,27.7800,-90.5180,32.2,108.0,82.3,12.6,'1111122,1111122,1111122' 
ADCP,ioos:station:wmo:42372:1,2014-11-07T13:25:00Z,27.7800,-90.5180,32.3,114.0,83.9,19.2,'1111122,1111122,1111122' 
ADCP,ioos:station:wmo:42372:1,2014-11-07T14:25:00Z,27.7800,-90.5180,32.3,113.0,78.8,17.4,'1111122,1111122,1111122' 
ADCP,ioos:station:wmo:42372:1,2014-11-07T15:25:00Z,27.7800,-90.5180,32.5,109.0,74.2,12.8,'1111122,1111122,1111122' 
ADCP,ioos:station:wmo:42372:1,2014-11-07T16:15:00Z,27.7800,-90.5180,32.3,111.0,76.6,13.1,'1111122,1111122,1111122' 
ADCP,ioos:station:wmo:42372:1,2014-11-07T17:25:00Z,27.7800,-90.5180,32.6,112.0,79.3,11.5,'1111122,1111122,1111122' 
ADCP,ioos:station:wmo:42372:1,2014-11-07T18:25:00Z,27.7800,-90.5180,32.5,114.0,80.2,17.3,'1111122,1111122,1111122' 
ADCP,ioos:station:wmo:42372:1,2014-11-07T19:25:00Z,27.7800,-90.5180,32.6,114.0,88.0,18.5,'1111122,1111122,1111122' 
ADCP,ioos:station:wmo:42372:1,2014-11-07T20:25:00Z,27.7800,-90.5180,32.5,113.0,87.5,16.4,'1111122,1111122,1111122' 
ADCP,ioos:station:wmo:42372:1,2014-11-07T21:25:00Z,27.7800,-90.5180,32.5,113.0,92.1,15.5,'1111122,1111122,1111122' 
ADCP,ioos:station:wmo:42372:1,2014-11-07T22:25:00Z,27.7800,-90.5180,32.5,114.0,94.0,12.2,'1111122,1111122,1111122' 
ADCP,ioos:station:wmo:42372:1,2014-11-07T23:25:00Z,27.7800,-90.5180,32.4,116.0,96.9,7.8,'1111122,1111122,1111122' 
ADCP,ioos:station:wmo:42372:1,2014-11-08T00:25:00Z,27.7800,-90.5180,32.7,110.0,86.9,4.7,'1111122,1111122,1111122' 
ADCP,ioos:station:wmo:42372:1,2014-11-08T01:25:00Z,27.7800,-90.5180,32.6,117.0,96.8,11.0,'1111122,1111122,1111122' 
ADCP,ioos:station:wmo:42372:1,2014-11-08T02:25:00Z,27.7800,-90.5180,32.6,118.0,92.2,2.5,'1111122,1111122,1111122' 
ADCP,ioos:station:wmo:42372:1,2014-11-08T03:25:00Z,27.7800,-90.5180,32.6,122.0,86.2,1.4,'1111122,1111122,1111122' 
ADCP,ioos:station:wmo:42372:1,2014-11-08T04:26:00Z,27.7800,-90.5180,32.6,123.0,85.9,7.7,'1111122,1111122,1111122' 
ADCP,ioos:station:wmo:42372:1,2014-11-08T05:26:00Z,27.7800,-90.5180,32.6,125.0,86.3,1.2,'1111122,1111122,1111122' 
ADCP,ioos:station:wmo:42372:1,2014-11-08T06:26:00Z,27.7800,-90.5180,32.6,128.0,80.7,1.2,'1111122,1111122,1111122' 
ADCP,ioos:station:wmo:42372:1,2014-11-08T07:26:00Z,27.7800,-90.5180,32.5,126.0,72.0,-2.9,'1111122,1111122,1111122' 
ADCP,ioos:station:wmo:42372:1,2014-11-08T08:26:00Z,27.7800,-90.5180,32.6,129.0,89.1,12.9,'1111122,1111122,1111122' 
ADCP,ioos:station:wmo:42372:1,2014-11-08T09:26:00Z,27.7800,-90.5180,32.4,126.0,83.4,10.5,'1111122,1111122,1111122' 
ADCP,ioos:station:wmo:42372:1,2014-11-08T10:26:00Z,27.7800,-90.5180,32.5,123.0,80.4,8.2,'1111122,1111122,1111122' 
ADCP,ioos:station:wmo:42372:1,2014-11-08T11:26:00Z,27.7800,-90.5180,32.5,120.0,81.0,10.5,'1111122,1111122,1111122' 
ADCP,ioos:station:wmo:42372:1,2014-11-08T12:26:00Z,27.7800,-90.5180,32.5,126.0,78.0,12.3,'1111122,1111122,1111122' 
ADCP,ioos:station:wmo:42372:1,2014-11-08T13:26:00Z,27.7800,-90.5180,32.5,135.0,77.2,10.9,'1111122,1111122,1111122' 
ADCP,ioos:station:wmo:42372:1,2014-11-08T14:26:00Z,27.7800,-90.5180,32.4,124.0,64.5,4.6,'1111122,1111122,1111122' 
ADCP,ioos:station:wmo:42372:1,2014-11-08T16:26:00Z,27.7800,-90.5180,32.5,134.0,57.6,8.6,'1111122,1111122,1111122' 
ADCP,ioos:station:wmo:42372:1,2014-11-08T17:26:00Z,27.7800,-90.5180,32.6,146.0,65.2,20.1,'1111122,1111122,1111122' 
ADCP,ioos:station:wmo:42372:1,2014-11-08T18:26:00Z,27.7800,-90.5180,32.6,134.0,68.8,24.8,'1111122,1111122,1111122' 
ADCP,ioos:station:wmo:42372:1,2014-11-08T19:26:00Z,27.7800,-90.5180,32.5,129.0,79.8,35.0,'1111122,1111122,1111122' 
ADCP,ioos:station:wmo:42372:1,2014-11-08T20:26:00Z,27.7800,-90.5180,32.6,134.0,77.4,29.2,'1111122,1111122,1111122' 
ADCP,ioos:station:wmo:42372:1,2014-11-08T21:26:00Z,27.7800,-90.5180,32.6,135.0,79.5,31.3,'1111122,1111122,1111122' 
ADCP,ioos:station:wmo:42372:1,2014-11-08T23:27:00Z,27.7800,-90.5180,32.6,123.0,81.3,6.0,'1111122,1111122,1111122' 
ADCP,ioos:station:wmo:42372:1,2014-11-09T01:27:00Z,27.7800,-90.5180,32.7,133.0,89.7,14.3,'1111122,1111122,1111122' 
ADCP,ioos:station:wmo:42372:1,2014-11-09T02:27:00Z,27.7800,-90.5180,32.7,134.0,82.5,12.8,'1111122,1111122,1111122' 
ADCP,ioos:station:wmo:42372:1,2014-11-09T03:27:00Z,27.7800,-90.5180,32.8,126.0,75.4,7.1,'1111122,1111122,1111122' 
ADCP,ioos:station:wmo:42372:1,2014-11-09T04:27:00Z,27.7800,-90.5180,32.7,136.0,82.0,5.9,'1111122,1111122,1111122' 
ADCP,ioos:station:wmo:42372:1,2014-11-09T05:27:00Z,27.7800,-90.5180,32.7,129.0,85.4,8.2,'1111122,1111122,1111122' 
ADCP,ioos:station:wmo:42372:1,2014-11-09T06:27:00Z,27.7800,-90.5180,32.7,133.0,90.2,14.7,'1111122,1111122,1111122' 
ADCP,ioos:station:wmo:42372:1,2014-11-09T07:27:00Z,27.7800,-90.5180,32.5,128.0,72.9,-2.3,'1111122,1111122,1111122' 
ADCP,ioos:station:wmo:42372:1,2014-11-09T08:27:00Z,27.7800,-90.5180,32.6,141.0,89.2,23.8,'1111122,1111122,1111122' 
ADCP,ioos:station:wmo:42372:1,2014-11-09T09:27:00Z,27.7800,-90.5180,32.7,133.0,90.7,21.1,'1111122,1111122,1111122' 
ADCP,ioos:station:wmo:42372:1,2014-11-09T10:27:00Z,27.7800,-90.5180,32.5,145.0,85.5,23.4,'1111122,1111122,1111122' 
ADCP,ioos:station:wmo:42372:1,2014-11-09T11:27:00Z,27.7800,-90.5180,32.5,147.0,87.4,24.9,'1111122,1111122,1111122' 
ADCP,ioos:station:wmo:42372:1,2014-11-09T12:27:00Z,27.7800,-90.5180,32.5,144.0,91.8,31.2,'1111122,1111122,1111122' 
ADCP,ioos:station:wmo:42372:1,2014-11-09T13:27:00Z,27.7800,-90.5180,32.5,142.0,73.2,25.2,'1111122,1111122,1111122' 
ADCP,ioos:station:wmo:42372:1,2014-11-09T14:27:00Z,27.7800,-90.5180,32.6,144.0,85.4,26.7,'1111122,1111122,1111122' 
ADCP,ioos:station:wmo:42372:1,2014-11-09T15:27:00Z,27.7800,-90.5180,32.5,144.0,77.4,25.7,'1111122,1111122,1111122' 
ADCP,ioos:station:wmo:42372:1,2014-11-09T16:28:00Z,27.7800,-90.5180,32.6,134.0,69.0,19.6,'1111122,1111122,1111122' 
ADCP,ioos:station:wmo:42372:1,2014-11-09T17:28:00Z,27.7800,-90.5180,32.5,141.0,66.7,22.2,'1111122,1111122,1111122' 
ADCP,ioos:station:wmo:42372:1,2014-11-09T18:28:00Z,27.7800,-90.5180,32.6,170.0,47.6,12.1,'1111122,1111122,1111122' 
ADCP,ioos:station:wmo:42372:1,2014-11-09T20:28:00Z,27.7800,-90.5180,32.7,122.0,30.0,6.0,'1111122,1111122,1111122' 
ADCP,ioos:station:wmo:42372:1,2014-11-09T22:28:00Z,27.7800,-90.5180,32.7,147.0,99.6,36.8,'1111122,1111122,1111122' 
ADCP,ioos:station:wmo:42372:1,2014-11-10T00:28:00Z,27.7800,-90.5180,32.7,150.0,58.6,22.0,'1111122,1111122,1111122' 
ADCP,ioos:station:wmo:42372:1,2014-11-10T01:28:00Z,27.7800,-90.5180,32.7,146.0,68.6,24.2,'1111122,1111122,1111122' 
ADCP,ioos:station:wmo:42372:1,2014-11-10T03:28:00Z,27.7800,-90.5180,32.6,154.0,88.6,31.4,'1111122,1111122,1111122' 
ADCP,ioos:station:wmo:42372:1,2014-11-10T04:28:00Z,27.7800,-90.5180,32.7,154.0,95.1,30.1,'1111122,1111122,1111122' 
ADCP,ioos:station:wmo:42372:1,2014-11-10T05:28:00Z,27.7800,-90.5180,32.8,154.0,93.2,31.1,'1111122,1111122,1111122' 
ADCP,ioos:station:wmo:42372:1,2014-11-10T08:28:00Z,27.7800,-90.5180,32.6,157.0,89.1,28.1,'1111122,1111122,1111122' 
ADCP,ioos:station:wmo:42372:1,2014-11-10T09:28:00Z,27.7800,-90.5180,32.5,157.0,96.2,28.5,'1111122,1111122,1111122' 
ADCP,ioos:station:wmo:42372:1,2014-11-10T10:29:00Z,27.7800,-90.5180,32.6,154.0,100.1,33.0,'1111122,1111122,1111122' 
ADCP,ioos:station:wmo:42372:1,2014-11-10T11:29:00Z,27.7800,-90.5180,32.5,156.0,108.7,39.9,'1111122,1111122,1111122' 
ADCP,ioos:station:wmo:42372:1,2014-11-10T12:29:00Z,27.7800,-90.5180,32.6,162.0,71.8,16.3,'1111122,1111122,1111122' 
ADCP,ioos:station:wmo:42372:1,2014-11-10T13:29:00Z,27.7800,-90.5180,32.5,153.0,101.7,35.8,'1111122,1111122,1111122' 
ADCP,ioos:station:wmo:42372:1,2014-11-10T14:29:00Z,27.7800,-90.5180,32.7,147.0,72.7,18.1,'1111122,1111122,1111122' 
ADCP,ioos:station:wmo:42372:1,2014-11-10T15:19:00Z,27.7800,-90.5180,32.4,163.0,89.7,32.5,'1111122,1111122,1111122' 